Total_Precipitation_Accumulation
2.57 2.75 3.45 3.26 3.01 2.87 2.75 2.64 2.46 2.42 2.52 2.68 2.68 2.68 2.73 2.80 2.91 3.03 3.17 3.21 3.42 3.71 3.86 3.87 3.66 3.64 3.58 3.55 3.24 2.77 2.44 2.37 2.22 2.03 1.87 1.83 1.85 2.04 2.46 2.66 2.47 1.85 1.80
2.17 2.54 3.13 3.03 2.86 2.74 2.60 2.53 2.39 2.33 2.53 2.73 2.77 2.70 2.77 2.77 2.85 2.87 3.02 3.35 3.64 3.79 3.84 3.54 3.38 3.44 3.44 3.42 3.05 2.70 2.43 2.38 2.27 2.26 2.09 1.79 1.97 2.33 2.70 2.78 2.77 1.95 1.85
1.87 2.25 2.43 2.70 2.61 2.53 2.48 2.56 2.80 2.79 2.77 2.72 2.71 2.64 2.68 2.70 2.78 2.85 3.08 3.35 3.56 3.50 3.43 3.28 3.24 3.16 3.09 3.04 2.82 2.57 2.42 2.28 2.32 2.49 2.63 1.84 1.65 2.35 2.65 2.67 2.46 1.86 1.68
1.71 2.01 2.11 2.44 2.37 2.18 2.34 2.60 2.88 3.01 2.97 2.88 2.75 2.60 2.56 2.68 2.84 2.95 2.93 3.04 3.16 3.01 2.85 2.96 3.13 3.05 2.92 2.70 2.57 2.51 2.45 2.38 2.58 2.93 2.95 2.06 1.59 2.00 2.38 2.32 2.06 1.74 1.56
1.63 1.94 2.22 2.31 2.14 2.04 2.18 2.47 2.75 2.89 2.87 2.82 2.67 2.59 2.67 2.63 2.67 2.73 2.74 2.86 2.87 2.90 2.82 2.75 2.90 3.00 2.87 2.66 2.56 2.56 2.50 2.52 2.86 2.91 2.50 2.36 2.25 2.21 2.25 2.19 1.98 1.76 1.63
1.32 1.65 2.00 2.22 2.10 2.08 2.31 2.45 2.51 2.55 2.54 2.50 2.51 2.60 2.60 2.54 2.58 2.54 2.51 2.57 2.76 2.77 2.53 2.46 2.73 3.00 2.97 2.72 2.55 2.71 2.80 2.88 2.78 2.26 2.12 2.12 2.18 2.29 2.23 2.31 2.23 1.98 1.84
1.19 1.47 1.78 2.14 2.06 2.05 2.17 2.30 2.40 2.52 2.50 2.42 2.42 2.35 2.41 2.50 2.52 2.42 2.25 2.30 2.48 2.47 2.29 2.29 2.59 2.83 2.88 2.74 2.68 3.02 3.04 3.02 2.52 2.09 1.99 2.19 2.03 1.94 2.12 2.36 2.52 2.30 1.99
1.03 1.29 1.53 1.91 1.98 1.92 1.95 2.10 2.34 2.48 2.49 2.38 2.21 2.10 2.19 2.29 2.25 2.17 2.09 2.24 2.24 2.12 2.13 2.22 2.52 2.42 2.57 2.82 2.95 3.28 3.18 2.66 2.00 1.91 1.82 1.89 1.57 1.68 2.02 2.25 2.40 2.27 1.99
0.94 1.08 1.36 1.63 1.85 1.90 2.02 2.10 2.15 2.12 2.06 2.01 1.90 1.97 2.11 2.18 2.06 1.98 2.00 2.13 2.06 2.09 2.18 2.36 2.52 2.32 2.51 2.88 3.06 3.17 3.04 2.51 1.92 1.92 1.71 1.89 1.77 1.93 2.23 2.32 2.27 2.26 2.03
1.19 1.23 1.39 1.50 1.62 1.75 1.87 1.99 2.02 1.99 1.83 1.75 1.74 1.80 1.88 1.98 1.98 1.88 1.89 2.09 2.02 2.04 2.09 2.34 2.44 2.33 2.63 2.91 3.06 3.03 2.91 2.31 1.76 1.76 1.81 1.67 1.82 2.20 2.54 2.54 2.45 2.40 2.25
1.51 1.51 1.47 1.42 1.43 1.59 1.65 1.76 1.96 1.95 1.86 1.81 1.89 1.93 1.96 2.00 1.81 1.82 1.94 2.28 2.24 2.30 2.31 2.46 2.59 2.80 2.92 2.84 2.99 2.95 2.63 2.16 2.06 1.99 1.97 1.73 1.96 2.45 2.77 2.71 2.65 2.67 2.51
1.57 1.63 1.66 1.59 1.41 1.50 1.54 1.77 1.86 1.62 1.73 1.89 2.06 1.94 1.96 2.07 2.06 1.89 2.27 2.58 2.71 2.89 2.92 3.02 3.21 3.07 2.81 2.86 3.34 3.30 2.47 2.30 2.12 2.14 2.32 2.12 2.33 2.87 3.14 2.91 2.75 2.81 2.69
1.72 1.53 1.68 1.91 1.83 1.80 1.89 1.71 1.69 1.73 1.93 1.98 1.86 1.82 2.03 1.80 1.69 1.91 2.23 2.55 2.83 3.11 3.31 3.53 3.68 3.33 3.27 3.54 3.73 3.34 2.58 2.24 2.19 2.05 2.36 2.45 2.64 3.16 3.57 3.32 3.08 3.05 2.97
1.93 1.64 1.63 1.84 2.10 2.10 1.95 1.81 1.71 1.67 1.78 1.87 1.99 1.90 2.05 2.03 2.03 2.24 2.71 2.88 3.11 3.22 3.69 3.76 4.15 3.93 3.58 3.37 3.42 3.23 2.82 2.64 2.38 2.45 2.75 2.37 2.54 3.12 3.74 3.75 3.56 3.36 3.18
2.20 1.97 1.87 1.83 2.06 2.15 2.16 2.03 1.81 1.86 1.84 2.01 2.15 2.11 2.18 2.30 2.60 2.90 3.03 3.39 3.32 3.34 3.65 4.08 4.11 4.39 4.36 4.20 3.91 3.51 3.35 3.07 2.72 2.79 2.89 2.75 2.66 2.95 3.60 4.09 4.01 3.74 3.39
2.56 2.40 2.15 1.96 1.99 2.14 2.22 2.26 2.25 2.18 2.35 2.37 2.44 2.47 2.62 2.84 3.17 3.52 3.59 3.75 3.56 3.55 3.98 4.30 4.36 4.94 4.83 4.57 4.03 3.71 3.47 3.31 3.00 2.85 3.04 3.17 2.79 2.71 3.20 4.02 4.37 4.20 3.98
2.75 2.81 2.69 2.50 2.49 2.64 2.91 2.87 2.65 2.71 2.74 2.84 2.98 3.04 3.04 3.17 3.63 3.95 3.93 3.85 3.85 3.86 4.24 4.50 4.62 4.74 4.45 4.26 4.09 3.88 3.69 3.42 2.99 2.98 3.01 3.22 3.05 2.83 3.12 3.57 4.10 4.30 4.44
2.84 3.22 3.33 3.09 3.25 3.43 3.70 3.72 3.40 3.33 3.25 3.26 3.21 3.25 3.21 3.36 3.68 4.22 4.01 3.85 4.24 4.09 4.36 4.96 4.98 4.84 4.77 4.50 4.25 3.87 3.64 3.47 2.96 2.89 2.90 3.13 3.47 3.01 3.12 3.49 3.77 3.94 4.55
2.99 3.50 3.76 3.88 4.06 4.12 4.23 4.26 4.11 3.92 3.75 3.48 3.48 3.46 3.32 3.35 3.52 3.97 3.86 3.98 4.06 4.40 4.58 4.28 4.95 5.04 4.87 4.57 3.87 3.64 3.25 3.11 3.03 2.74 2.90 2.97 3.37 3.20 3.20 3.26 3.55 3.74 4.48
3.30 3.74 4.29 4.60 4.75 4.55 4.50 4.50 4.29 3.95 3.77 3.56 3.52 3.50 3.28 3.33 3.40 3.93 3.79 3.81 3.89 4.34 4.51 4.46 4.92 4.87 4.56 4.48 3.52 3.30 3.12 2.71 2.70 2.76 2.62 2.83 3.11 2.79 3.03 3.30 3.72 3.31 3.69
3.78 4.08 4.41 4.92 5.22 5.12 5.15 5.05 4.88 4.54 4.33 3.92 3.46 3.10 3.04 3.05 3.31 3.86 3.55 3.97 3.88 4.08 4.20 4.15 4.50 4.63 4.26 4.26 4.20 3.71 2.95 2.49 2.46 2.44 2.48 2.71 2.74 2.85 3.48 4.01 4.15 4.03 3.83
3.59 4.12 4.47 4.53 4.52 4.41 4.64 5.04 5.25 5.17 4.63 3.99 3.59 3.45 3.07 3.00 3.15 3.35 3.68 3.61 3.68 3.91 3.91 3.95 4.30 4.28 3.84 3.97 4.23 4.30 3.51 3.15 2.60 2.00 2.33 2.48 2.60 3.00 3.24 3.44 3.88 4.27 4.42
3.03 3.57 3.73 3.63 3.60 3.49 3.64 4.05 4.35 4.64 4.42 4.12 3.80 3.53 3.11 2.97 2.97 3.11 3.36 3.39 3.45 3.32 3.56 3.79 3.76 3.80 3.75 3.71 3.76 4.21 3.90 3.46 2.91 2.31 2.14 2.23 2.59 2.89 2.92 3.15 3.25 3.60 3.92
2.17 2.43 2.64 2.87 3.00 3.01 3.06 3.29 3.53 3.82 3.90 3.90 3.85 3.50 3.11 2.80 2.74 2.87 2.97 2.99 3.06 3.00 3.29 3.00 3.10 3.45 3.72 3.58 3.49 3.43 3.49 3.63 3.50 2.82 2.31 2.20 2.47 2.64 2.64 2.61 2.90 3.35 3.47
1.91 2.16 2.38 2.68 2.86 2.94 2.91 3.00 3.22 3.56 3.62 3.45 3.33 3.39 3.16 2.86 2.58 2.52 2.72 2.81 2.80 2.72 2.81 2.86 3.21 3.18 3.32 3.34 3.36 3.34 3.45 3.49 3.33 3.14 2.75 2.61 2.56 2.27 2.25 2.42 2.70 3.05 3.24
1.74 1.99 2.23 2.48 2.50 2.61 2.67 2.67 2.75 2.98 3.14 3.01 2.86 2.88 2.74 2.61 2.50 2.40 2.47 2.66 2.57 2.54 2.66 2.78 2.91 2.90 3.00 3.11 3.11 3.12 3.38 3.28 3.21 3.32 2.97 2.79 2.69 2.34 2.28 2.36 2.52 2.80 2.95